Wind_Speed
47 46 46 46 46 46 46 46 46 47 47 47 48 49 50 52 53 53 55 56 57 58 60 60 61 62 63 63 64 65 65 64 64 64 65 64 64 64 64 64 63 62 61
43 44 45 45 46 46 46 47 49 49 50 50 51 52 53 55 55 57 58 59 60 61 62 62 63 64 64 64 64 65 64 63 62 62 62 62 62 62 62 61 59 57 56
41 41 43 44 45 46 47 48 49 49 50 52 53 54 55 56 58 59 60 60 61 61 62 62 63 63 63 63 63 62 61 60 60 59 58 59 59 58 57 55 53 51 50
40 40 41 43 44 44 45 46 47 48 50 50 52 53 54 56 57 58 59 59 60 60 60 61 61 61 61 61 60 59 58 57 56 56 55 54 53 52 50 47 45 44 44
38 38 38 39 41 41 43 44 45 47 48 50 52 53 54 55 55 56 57 57 58 58 59 59 59 59 58 56 56 55 54 53 52 51 49 48 47 44 42 40 38 37 37
35 36 37 39 41 41 43 44 45 46 48 50 51 52 53 54 55 56 57 57 57 57 57 56 55 54 53 52 51 50 50 48 46 44 42 40 37 36 34 34 32 30 30
33 35 36 37 39 41 42 43 44 46 47 48 49 50 51 52 54 55 55 55 54 53 52 50 49 48 46 45 44 42 40 37 36 34 32 30 30 30 28 27 27 27 27
31 33 35 36 37 39 40 42 43 45 45 46 47 48 50 50 51 51 51 50 48 46 44 43 41 39 37 36 34 32 31 29 28 26 25 25 24 23 22 21 22 23 25
32 33 34 35 37 38 39 41 42 42 43 44 45 46 47 48 49 48 46 43 41 38 37 36 33 30 28 26 25 24 23 22 20 20 19 18 18 17 17 18 19 21 23
30 31 33 34 35 36 37 38 38 39 40 42 43 44 45 45 43 41 39 36 33 31 29 26 23 21 19 18 18 17 17 16 15 14 14 13 13 14 15 17 19 21 22
29 30 31 32 33 34 35 36 37 37 38 39 39 39 38 37 35 33 30 28 25 23 20 17 15 14 14 13 13 12 11 11 11 11 11 12 12 14 15 17 19 21 23
27 28 29 30 31 32 32 32 32 33 34 34 33 32 30 29 27 25 22 20 18 15 13 11 10 10 9 9 9 9 9 9 10 10 11 12 13 15 17 19 20 22 23
26 27 27 27 28 27 27 28 28 29 29 28 27 26 25 23 21 19 17 14 11 9 8 8 7 7 8 8 8 8 8 9 9 10 11 13 14 16 18 19 21 22 23
23 23 23 23 23 23 23 24 24 25 25 24 23 22 21 19 17 14 12 9 7 7 6 7 7 7 7 8 8 8 9 10 11 12 13 14 16 17 19 21 22 23 24
19 19 19 19 20 20 20 20 21 21 21 20 19 18 17 15 13 11 9 8 8 9 8 8 8 8 8 9 9 10 10 11 12 13 15 16 18 19 20 22 22 23 23
17 17 17 17 17 18 18 18 18 18 18 17 16 15 14 13 11 9 8 8 9 9 10 10 10 10 10 10 10 11 12 13 14 15 16 18 19 20 21 23 23 24 24
15 15 15 15 15 15 16 16 16 16 16 14 13 13 12 12 11 10 9 9 10 10 11 11 11 11 11 11 12 12 13 14 15 16 17 19 20 21 23 24 25 25 24
14 13 12 12 13 14 14 15 14 14 13 13 12 11 11 11 10 10 10 10 10 11 11 11 11 11 12 12 13 14 15 16 16 17 18 19 21 22 23 25 25 25 24
12 11 10 11 11 12 13 13 13 12 12 11 11 10 10 10 10 10 10 10 10 10 11 11 11 12 12 13 14 14 15 16 17 18 19 20 21 22 23 24 25 25 23
10 9 9 10 10 11 12 12 11 11 11 10 10 10 10 9 9 9 10 10 10 10 11 11 12 12 12 13 14 15 16 17 18 19 19 20 21 22 23 24 24 24 23
8 8 9 9 9 10 10 11 10 10 10 9 9 9 9 9 9 9 10 10 10 11 11 11 12 12 13 13 14 15 16 17 18 19 20 21 21 22 22 23 23 23 23
8 7 8 8 8 8 9 9 9 9 9 9 9 9 9 9 9 9 10 10 10 11 11 11 12 12 13 14 15 15 16 17 18 19 20 21 21 21 22 22 22 22 22
7 7 7 7 7 7 7 8 8 9 9 8 8 8 8 9 9 9 9 10 10 10 11 11 12 12 13 14 15 15 16 17 18 19 20 20 21 21 21 22 22 22 21
8 7 7 6 6 6 6 7 7 8 8 8 8 8 8 8 8 9 9 10 10 10 11 11 12 13 13 14 15 16 16 17 18 19 19 20 20 21 21 21 21 21 21
9 8 7 6 6 6 6 7 7 7 8 8 8 8 8 8 8 8 9 9 10 10 11 11 12 13 13 14 15 16 16 17 18 19 19 20 20 20 20 20 20 20 20
10 10 9 8 7 7 7 7 7 7 7 8 8 8 8 8 9 9 9 10 10 10 11 11 12 13 14 15 15 16 17 18 18 19 19 20 20 20 20 20 20 20 20
Wind_Direction
275 277 279 280 282 283 284 284 284 285 286 287 288 289 290 290 291 290 290 290 291 291 290 290 289 289 289 288 287 287 287 287 287 287 286 286 286 287 288 289 290 290 291
277 277 278 278 280 280 281 282 283 285 285 287 288 289 290 290 289 289 290 290 291 290 289 289 288 288 288 287 287 287 286 287 287 287 287 287 288 288 290 291 292 292 292
276 277 276 277 277 278 280 280 282 283 284 285 288 288 288 288 289 290 290 290 290 289 288 288 287 288 288 288 288 288 288 288 289 289 289 289 289 290 291 292 293 293 293
276 278 277 277 277 279 281 282 282 284 284 285 287 287 288 289 289 289 289 289 289 289 289 288 288 288 288 288 288 288 288 289 290 290 291 291 291 292 293 293 294 295 295
278 278 277 278 280 282 283 284 285 285 285 286 288 289 289 290 291 291 291 290 289 289 289 289 288 288 288 288 288 288 289 290 291 292 292 293 293 294 294 295 295 296 296
280 280 281 281 282 284 284 286 289 289 289 289 290 291 291 291 292 292 292 292 291 290 290 290 289 289 289 289 289 289 290 290 291 293 294 294 295 296 297 297 297 297 299
283 283 283 284 285 286 287 288 289 290 291 291 292 293 294 294 293 293 293 292 292 291 291 291 291 291 291 292 291 292 292 293 293 294 294 295 297 298 299 299 301 303 305
285 285 285 286 287 288 290 291 292 293 293 295 296 296 296 296 296 295 295 294 294 293 293 293 293 294 295 296 296 296 295 295 296 296 297 298 301 302 301 303 306 309 310
287 287 288 290 291 292 294 295 296 296 297 298 298 299 299 299 299 298 297 297 296 296 296 297 298 299 300 300 299 300 301 302 303 303 303 306 308 308 309 312 315 317 318
290 291 293 295 296 297 298 299 299 300 300 301 301 302 302 302 301 300 300 299 299 300 301 302 303 304 306 307 308 311 312 312 313 314 317 318 318 319 321 322 323 324 325
295 296 297 297 298 299 300 301 301 302 304 305 306 306 306 307 307 306 304 303 303 303 303 305 308 311 315 320 324 326 327 329 331 333 336 337 337 337 335 333 332 331 330
299 300 300 300 301 302 303 305 307 309 311 313 313 314 314 315 315 315 314 311 308 308 312 316 322 328 335 340 343 346 349 350 350 351 351 350 348 345 343 341 338 337 335
304 304 305 305 306 307 308 311 314 317 319 321 321 321 320 321 322 324 325 323 321 324 330 340 350 359 1 3 6 9 10 11 11 8 3 358 355 352 348 345 343 342 341
308 309 310 311 313 315 316 318 321 324 326 327 329 329 329 331 334 339 344 351 1 10 20 26 29 26 25 29 30 29 28 26 23 17 10 5 1 357 353 350 348 348 347
312 314 315 317 319 321 323 325 328 330 332 334 336 339 343 348 354 2 13 27 39 47 50 49 46 44 45 44 43 39 34 31 26 20 14 9 5 1 358 356 355 354 353
314 316 318 320 324 327 330 332 334 337 340 343 346 350 356 4 12 22 36 48 56 61 61 59 58 55 50 48 46 44 38 31 25 20 16 13 10 7 6 4 2 360 359
313 315 318 323 327 331 335 338 341 343 347 354 360 5 11 20 31 42 53 62 66 68 67 65 62 57 53 50 48 43 36 29 25 22 18 15 13 12 11 9 7 6 5
313 315 319 326 331 336 340 345 348 352 357 4 8 13 20 29 40 53 62 67 71 73 70 64 59 55 52 48 44 38 32 28 25 22 17 15 14 14 13 12 12 11 12
316 317 321 327 334 340 345 350 354 359 5 12 18 23 31 40 50 59 66 69 72 72 68 62 55 50 47 44 39 35 31 29 25 21 19 18 17 15 14 14 15 16 18
323 324 326 331 337 344 349 354 359 4 11 19 25 31 38 47 57 64 68 70 70 68 63 56 50 47 44 41 37 35 32 28 24 23 22 20 17 15 15 16 18 20 22
327 328 331 334 340 347 354 359 3 9 15 21 27 35 43 52 61 66 68 67 66 62 57 52 48 45 44 40 37 34 30 27 26 25 23 19 17 17 18 19 22 24 26
334 333 335 336 341 349 356 2 8 14 19 25 32 42 50 58 64 67 66 63 60 56 53 49 47 45 42 38 35 32 29 26 25 23 21 20 19 20 21 22 25 27 29
349 345 343 343 345 353 359 6 13 19 24 31 40 49 58 63 66 65 62 58 56 54 50 48 45 42 39 36 33 29 26 25 24 22 21 20 21 22 24 25 27 29 31
2 2 2 1 2 6 11 15 20 25 30 38 47 55 61 63 63 62 61 58 55 53 50 46 44 42 39 35 30 28 27 26 25 23 22 22 23 25 26 27 28 30 32
17 19 20 20 20 21 21 22 25 30 37 44 51 57 61 63 63 63 62 58 55 53 50 47 45 41 36 32 30 30 29 27 25 24 23 23 25 27 28 29 31 33 35
32 32 33 33 34 34 33 31 33 37 42 48 54 59 62 64 66 65 63 59 57 55 53 50 44 39 36 35 33 30 28 26 25 25 25 25 27 29 30 32 33 35 37
Height
5795 5794 5793 5791 5789 5787 5785 5783 5782 5780 5778 5776 5773 5771 5768 5766 5762 5759 5756 5753 5749 5745 5741 5737 5733 5729 5724 5720 5716 5712 5708 5704 5700 5695 5689 5683 5679 5674 5671 5666 5661 5657 5652
5786 5784 5782 5781 5779 5777 5775 5773 5771 5769 5766 5764 5761 5758 5755 5752 5749 5745 5742 5738 5734 5729 5725 5721 5716 5712 5707 5703 5698 5694 5690 5686 5682 5678 5672 5666 5661 5657 5654 5650 5645 5640 5636
5776 5774 5772 5771 5769 5767 5765 5762 5760 5757 5754 5751 5748 5745 5742 5738 5735 5731 5726 5722 5718 5713 5708 5704 5699 5694 5690 5685 5681 5677 5672 5668 5664 5660 5655 5650 5645 5641 5638 5634 5629 5625 5620
5765 5764 5762 5760 5758 5756 5753 5751 5748 5745 5742 5739 5735 5732 5728 5724 5720 5716 5711 5706 5702 5697 5692 5687 5682 5677 5673 5668 5664 5660 5656 5651 5647 5644 5640 5635 5631 5627 5624 5621 5617 5612 5607
5755 5754 5752 5750 5747 5745 5742 5739 5736 5733 5729 5726 5722 5718 5714 5710 5706 5701 5696 5691 5686 5681 5675 5671 5666 5661 5656 5652 5648 5644 5641 5637 5633 5629 5626 5622 5618 5615 5612 5609 5606 5602 5597
5744 5743 5741 5738 5736 5733 5730 5727 5724 5721 5717 5713 5709 5705 5700 5696 5691 5686 5681 5675 5670 5665 5660 5655 5650 5645 5641 5636 5633 5629 5626 5624 5620 5617 5614 5611 5607 5604 5602 5599 5596 5593 5590
5735 5732 5730 5728 5725 5722 5719 5716 5712 5708 5705 5700 5696 5692 5687 5682 5676 5671 5666 5661 5655 5650 5645 5640 5635 5631 5626 5622 5619 5616 5614 5612 5609 5607 5605 5602 5599 5597 5594 5591 5588 5585 5582
5725 5723 5720 5718 5715 5712 5708 5705 5701 5697 5692 5688 5683 5679 5674 5668 5663 5657 5651 5646 5641 5636 5632 5627 5623 5619 5616 5612 5609 5607 5605 5603 5601 5599 5598 5595 5593 5590 5588 5586 5583 5579 5575
5716 5714 5711 5708 5705 5702 5698 5695 5691 5686 5682 5677 5672 5666 5661 5655 5649 5644 5638 5633 5629 5625 5621 5617 5614 5610 5607 5604 5602 5600 5598 5596 5595 5593 5592 5590 5588 5586 5583 5581 5578 5574 5570
5708 5706 5703 5699 5696 5693 5689 5685 5680 5676 5671 5666 5661 5655 5649 5643 5637 5632 5627 5622 5619 5615 5612 5609 5607 5604 5601 5599 5597 5595 5593 5592 5591 5589 5588 5586 5584 5582 5580 5577 5573 5569 5565
5700 5698 5695 5691 5688 5684 5680 5676 5672 5667 5662 5656 5651 5645 5639 5633 5627 5622 5618 5614 5611 5609 5606 5604 5602 5600 5598 5596 5594 5593 5591 5590 5588 5587 5585 5584 5582 5579 5577 5573 5570 5565 5560
5693 5690 5687 5684 5680 5676 5672 5668 5664 5659 5653 5648 5642 5636 5631 5625 5620 5616 5612 5608 5606 5604 5602 5601 5599 5597 5596 5594 5593 5591 5590 5589 5588 5586 5584 5582 5580 5577 5574 5570 5566 5562 5557
5686 5683 5680 5676 5673 5669 5665 5661 5657 5652 5647 5641 5636 5631 5626 5621 5616 5612 5608 5605 5603 5602 5600 5599 5597 5596 5595 5594 5593 5592 5590 5589 5587 5586 5584 5582 5579 5576 5572 5568 5563 5559 5553
5680 5677 5673 5670 5667 5663 5660 5656 5652 5647 5642 5637 5632 5627 5622 5617 5613 5609 5606 5604 5602 5601 5600 5599 5598 5597 5596 5595 5594 5593 5591 5590 5588 5587 5584 5582 5578 5575 5571 5566 5561 5556 5550
5675 5672 5669 5666 5662 5659 5655 5652 5648 5643 5639 5634 5630 5625 5621 5616 5613 5609 5607 5605 5603 5602 5601 5600 5600 5599 5598 5597 5596 5594 5593 5592 5590 5587 5585 5582 5578 5574 5570 5565 5560 5554 5549
5670 5668 5665 5662 5659 5656 5652 5649 5645 5641 5637 5633 5628 5624 5621 5617 5613 5611 5608 5607 5606 5605 5604 5603 5602 5601 5600 5599 5598 5596 5595 5593 5591 5589 5585 5582 5578 5574 5569 5564 5559 5553 5548
5667 5664 5662 5659 5657 5654 5650 5647 5643 5640 5636 5632 5628 5625 5621 5618 5615 5613 5611 5609 5608 5608 5607 5606 5605 5604 5603 5602 5600 5599 5597 5595 5592 5590 5586 5583 5579 5574 5569 5564 5558 5553 5547
5663 5661 5659 5657 5654 5652 5649 5646 5642 5639 5636 5632 5629 5626 5623 5620 5617 5615 5614 5613 5612 5611 5610 5609 5608 5607 5606 5605 5603 5601 5599 5596 5594 5591 5587 5583 5579 5575 5570 5565 5559 5554 5548
5660 5658 5657 5655 5653 5650 5648 5645 5642 5639 5636 5633 5630 5627 5624 5622 5620 5618 5617 5616 5615 5614 5613 5612 5611 5610 5609 5607 5605 5603 5601 5598 5595 5592 5588 5584 5580 5576 5571 5566 5561 5555 5550
5657 5656 5655 5653 5651 5649 5647 5644 5642 5639 5636 5634 5631 5629 5626 5624 5623 5621 5620 5619 5618 5617 5616 5615 5614 5613 5611 5609 5607 5605 5603 5600 5597 5593 5590 5586 5582 5577 5573 5568 5563 5557 5552
5655 5654 5653 5651 5650 5648 5646 5644 5642 5640 5637 5635 5633 5630 5628 5627 5625 5624 5623 5622 5621 5620 5619 5618 5617 5615 5614 5612 5610 5607 5605 5602 5599 5595 5591 5587 5583 5579 5574 5570 5565 5560 5555
5653 5652 5651 5650 5649 5648 5646 5644 5642 5640 5638 5636 5634 5632 5631 5629 5628 5627 5626 5625 5624 5623 5622 5621 5619 5618 5616 5614 5612 5609 5607 5604 5601 5597 5593 5589 5585 5581 5576 5572 5567 5563 5558
5653 5651 5650 5649 5648 5647 5646 5645 5643 5641 5639 5637 5636 5634 5633 5632 5631 5630 5629 5628 5627 5626 5624 5623 5622 5620 5618 5616 5614 5612 5609 5606 5603 5599 5595 5591 5587 5583 5579 5574 5570 5566 5562
5652 5651 5650 5649 5648 5647 5646 5645 5644 5642 5640 5639 5637 5636 5635 5634 5633 5632 5631 5630 5629 5628 5627 5626 5624 5622 5621 5619 5616 5614 5611 5608 5605 5601 5598 5594 5590 5586 5581 5577 5573 5570 5566
5653 5651 5650 5649 5648 5648 5647 5646 5644 5643 5642 5640 5639 5638 5637 5636 5635 5634 5633 5633 5632 5631 5629 5628 5627 5625 5623 5621 5619 5616 5613 5610 5607 5603 5600 5596 5592 5588 5584 5581 5577 5573 5569
5654 5653 5651 5650 5649 5648 5648 5646 5645 5644 5643 5642 5641 5640 5639 5638 5637 5637 5636 5635 5634 5633 5632 5631 5629 5628 5626 5623 5621 5618 5615 5612 5609 5606 5602 5598 5595 5591 5587 5584 5580 5577 5573